Export;EXP-2023-01 (20230709 16:50);;;StationsCode;NL10131;NL10235;NL10444;NL10538;NL10633;NL10722;NL10738;NL10928
Periode;19950101 00:00 - 19960101 00:00;;;BeheerderMeetStation;RIVM;RIVM;RIVM;RIVM;RIVM;RIVM;RIVM;RIVM
Bron;https://data.rivm.nl/data/luchtmeetnet;;;StationsNaam;Vredepeel-Vredeweg;Huijbergen-Vennekenstraat;De Zilk-Vogelaarsdreef;Wieringerwerf-Medemblikkerweg;Zegveld-Oude Meije;Eibergen-Lintveldseweg;Wekerom-Riemterdijk;Witteveen-Talmaweg
Beschrijving data;https://data.rivm.nl/data/luchtmeetnet/readme.pdf;;;Latitude,Longitude;(51.54052,5.85307);(51.434443,4.359835);(52.296556,4.510817);(52.803657,5.050509);(52.13795,4.83819);(52.091801,6.605367);(52.111621,5.708419);(52.81361,6.669722)
Accreditatienummer;https://www.rva.nl/alle-geaccrediteerden/;;;StationsGebied;regionaal;regionaal;regionaal;regionaal;regionaal;regionaal;regionaal;regionaal
;;;;StationsType;achtergrond;achtergrond;achtergrond;achtergrond;achtergrond;achtergrond;achtergrond;achtergrond
;;;;Meetprincipe;Geleidbaarheid;Geleidbaarheid;Geleidbaarheid;Geleidbaarheid;Geleidbaarheid;Geleidbaarheid;Geleidbaarheid;Geleidbaarheid
;;;;Meetopstelling;NH3 monitor AMOR ;NH3 monitor AMOR ;NH3 monitor AMOR ;NH3 monitor AMOR ;NH3 monitor AMOR ;NH3 monitor AMOR ;NH3 monitor AMOR ;NH3 monitor AMOR 
;;;;Accreditatienummer;nvt;nvt;nvt;nvt;nvt;nvt;nvt;nvt
Component;Bep.periode;Eenheid; Begindatumtijd;Einddatumtijd;NL10131;NL10235;NL10444;NL10538;NL10633;NL10722;NL10738;NL10928
NH3;uur;�g/m�;19950101 00:00;19950101 01:00;10.671;0.557;0.379;;;2.854;4.023;1.392
NH3;uur;�g/m�;19950101 01:00;19950101 02:00;16.392;0.495;0.38;;;2.981;4.253;1.057
NH3;uur;�g/m�;19950101 02:00;19950101 03:00;21.783;0.627;0.384;;;3.466;5.944;0.823
NH3;uur;�g/m�;19950101 03:00;19950101 04:00;26.01;0.828;0.372;;;3.364;10.278;0.848
NH3;uur;�g/m�;19950101 04:00;19950101 05:00;16.888;0.759;0.338;;;3.67;11.347;0.684
NH3;uur;�g/m�;19950101 05:00;19950101 06:00;19.341;0.68;0.307;;;4.539;8.449;0.528
NH3;uur;�g/m�;19950101 06:00;19950101 07:00;14.936;0.568;0.328;;;4.229;5.754;0.389
NH3;uur;�g/m�;19950101 07:00;19950101 08:00;11.825;0.636;0.31;;;3.108;6.886;0.562
NH3;uur;�g/m�;19950101 08:00;19950101 09:00;12.269;0.711;0.308;;;3.345;6.576;0.471
NH3;uur;�g/m�;19950101 09:00;19950101 10:00;9.962;0.611;0.325;;;4.339;6.506;0.651
NH3;uur;�g/m�;19950101 10:00;19950101 11:00;9.923;0.51;0.354;;;4.188;5.413;0.674
NH3;uur;�g/m�;19950101 11:00;19950101 12:00;9.671;0.467;0.317;;;4.617;6.571;1.21
NH3;uur;�g/m�;19950101 12:00;19950101 13:00;8.933;0.717;0.296;;;4.559;3.505;1.136
NH3;uur;�g/m�;19950101 13:00;19950101 14:00;7.003;0.718;0.35;;;2.982;2.315;0.549
NH3;uur;�g/m�;19950101 14:00;19950101 15:00;9.351;0.697;0.286;;;2.528;2.939;0.345
NH3;uur;�g/m�;19950101 15:00;19950101 16:00;5.653;0.684;0.311;;;2.642;4.393;0.802
NH3;uur;�g/m�;19950101 16:00;19950101 17:00;4.003;0.593;0.35;;;3.068;3.822;1.025
NH3;uur;�g/m�;19950101 17:00;19950101 18:00;6.217;0.765;0.383;;;3.589;3.906;0.562
NH3;uur;�g/m�;19950101 18:00;19950101 19:00;6.037;0.487;0.401;;;4.126;5.604;0.42
NH3;uur;�g/m�;19950101 19:00;19950101 20:00;6.347;0.503;0.373;;;4.442;5.149;0.369
NH3;uur;�g/m�;19950101 20:00;19950101 21:00;8.314;0.511;0.326;;;2.941;3.21;0.331
NH3;uur;�g/m�;19950101 21:00;19950101 22:00;6.175;0.548;0.318;;;2.532;3.614;0.329
NH3;uur;�g/m�;19950101 22:00;19950101 23:00;4.993;0.522;0.341;;;2.569;3.467;0.346
NH3;uur;�g/m�;19950101 23:00;19950102 00:00;7.199;0.468;0.328;;;3.038;5.426;0.428
NH3;uur;�g/m�;19950102 00:00;19950102 01:00;9.049;0.444;0.33;;;3.39;5.434;0.557
NH3;uur;�g/m�;19950102 01:00;19950102 02:00;9.224;0.428;0.342;;;3.172;5.777;0.634
NH3;uur;�g/m�;19950102 02:00;19950102 03:00;11.055;0.448;0.311;;;3.209;5.341;0.391
NH3;uur;�g/m�;19950102 03:00;19950102 04:00;13.681;0.432;0.289;;;3.329;4.132;0.352
NH3;uur;�g/m�;19950102 04:00;19950102 05:00;10.051;0.409;0.32;;;2.359;2.752;0.351
NH3;uur;�g/m�;19950102 05:00;19950102 06:00;6.224;0.38;0.317;;;2.093;3.883;0.31
NH3;uur;�g/m�;19950102 06:00;19950102 07:00;7.11;0.414;0.309;;;2.405;5.259;0.231
NH3;uur;�g/m�;19950102 07:00;19950102 08:00;7.186;0.495;0.349;;;3.128;5.923;0.138
NH3;uur;�g/m�;19950102 08:00;19950102 09:00;12.123;0.554;0.336;;;2.773;4.961;0.096
NH3;uur;�g/m�;19950102 09:00;19950102 10:00;7.915;0.591;0.314;;;2.702;6.778;0.077
NH3;uur;�g/m�;19950102 10:00;19950102 11:00;7.775;0.501;0.338;;;2.911;7.319;0.125
NH3;uur;�g/m�;19950102 11:00;19950102 12:00;8.499;0.546;;;;3.156;8.307;0.266
NH3;uur;�g/m�;19950102 12:00;19950102 13:00;7.879;0.584;;;;3.243;5.801;0.308
NH3;uur;�g/m�;19950102 13:00;19950102 14:00;7.48;0.532;;;;3.412;4.417;0.365
NH3;uur;�g/m�;19950102 14:00;19950102 15:00;9.148;0.618;;;;3.9;5.042;0.313
NH3;uur;�g/m�;19950102 15:00;19950102 16:00;8.26;0.575;0.472;;;4.087;7.112;0.275
NH3;uur;�g/m�;19950102 16:00;19950102 17:00;6.911;0.541;0.478;;;3.617;4.624;0.21
NH3;uur;�g/m�;19950102 17:00;19950102 18:00;8.111;0.518;0.492;;;3.344;6.442;0.095
NH3;uur;�g/m�;19950102 18:00;19950102 19:00;6.035;0.479;0.466;;;3.473;7.656;0.133
NH3;uur;�g/m�;19950102 19:00;19950102 20:00;6.881;0.485;0.468;;;4.173;10.553;0.114
NH3;uur;�g/m�;19950102 20:00;19950102 21:00;6.439;0.529;0.454;;;4.117;9.299;0.188
NH3;uur;�g/m�;19950102 21:00;19950102 22:00;6.309;0.49;0.442;;;4.395;10.042;0.149
NH3;uur;�g/m�;19950102 22:00;19950102 23:00;6.498;0.411;0.445;;;4.205;23.607;0.123
NH3;uur;�g/m�;19950102 23:00;19950103 00:00;7.503;0.346;0.432;;;3.944;12.987;0.164
NH3;uur;�g/m�;19950103 00:00;19950103 01:00;6.07;0.325;0.393;;;3.73;15.199;0.167
NH3;uur;�g/m�;19950103 01:00;19950103 02:00;7.252;0.303;0.392;;;3.353;34.136;0.109
NH3;uur;�g/m�;19950103 02:00;19950103 03:00;11.721;0.298;0.514;;;3.387;32.416;0.049
NH3;uur;�g/m�;19950103 03:00;19950103 04:00;16.31;0.305;0.504;;;3.314;30.095;0.034
NH3;uur;�g/m�;19950103 04:00;19950103 05:00;15.095;0.313;0.427;;;4.525;38.325;0.032
NH3;uur;�g/m�;19950103 05:00;19950103 06:00;13.529;0.353;0.396;;;4.966;37.894;0.028
NH3;uur;�g/m�;19950103 06:00;19950103 07:00;19.1;0.39;0.384;;;5.909;35.567;0.079
NH3;uur;�g/m�;19950103 07:00;19950103 08:00;19.809;0.398;0.38;;;5.424;41.519;0.206
NH3;uur;�g/m�;19950103 08:00;19950103 09:00;41.996;0.403;0.312;;;6.707;34.493;0.223
NH3;uur;�g/m�;19950103 09:00;19950103 10:00;51.022;0.411;0.353;;;9.273;25.537;0.123
NH3;uur;�g/m�;19950103 10:00;19950103 11:00;24.897;0.462;0.491;;;;24.562;
NH3;uur;�g/m�;19950103 11:00;19950103 12:00;27.581;0.631;0.64;;;;15.447;
NH3;uur;�g/m�;19950103 12:00;19950103 13:00;51.312;5.976;0.846;;;13.885;12.32;
NH3;uur;�g/m�;19950103 13:00;19950103 14:00;55.222;4.062;0.909;;;10.235;11.228;1.399
NH3;uur;�g/m�;19950103 14:00;19950103 15:00;23.553;3.679;1.158;;;6.899;8.923;1.333
NH3;uur;�g/m�;19950103 15:00;19950103 16:00;12.072;2.663;1.728;;;6.896;10.174;1.11
NH3;uur;�g/m�;19950103 16:00;19950103 17:00;24.036;2.026;1.754;;;5.276;19.667;0.921
NH3;uur;�g/m�;19950103 17:00;19950103 18:00;15.235;1.44;1.961;;;4.1;32.613;0.914
NH3;uur;�g/m�;19950103 18:00;19950103 19:00;13.27;1.242;2.489;;;5.013;36.975;0.977
NH3;uur;�g/m�;19950103 19:00;19950103 20:00;18.296;0.842;2.51;;;7.227;39.638;1.053
NH3;uur;�g/m�;19950103 20:00;19950103 21:00;27.473;0.81;2.827;;;11.67;51.465;1.086
NH3;uur;�g/m�;19950103 21:00;19950103 22:00;11.827;1.269;2.933;;;12.538;45.961;1.277
NH3;uur;�g/m�;19950103 22:00;19950103 23:00;10.711;1.528;3.081;;;12.59;40.333;1.729
NH3;uur;�g/m�;19950103 23:00;19950104 00:00;13.037;1.152;3.675;;;13.286;35.22;2.265
NH3;uur;�g/m�;19950104 00:00;19950104 01:00;13.097;1.099;4.064;;;16.852;30.577;2.018
NH3;uur;�g/m�;19950104 01:00;19950104 02:00;20.581;0.955;5.309;;;16.119;16.77;1.572
NH3;uur;�g/m�;19950104 02:00;19950104 03:00;15.177;1.332;4.634;;;19.116;19.965;1.312
NH3;uur;�g/m�;19950104 03:00;19950104 04:00;17.582;1.644;3.84;;;24.32;32.816;1.209
NH3;uur;�g/m�;19950104 04:00;19950104 05:00;18.882;1.369;3.162;;;21.927;40.499;1.314
NH3;uur;�g/m�;19950104 05:00;19950104 06:00;16.464;1.084;3.336;;;19.465;50.136;1.297
NH3;uur;�g/m�;19950104 06:00;19950104 07:00;17.501;0.94;2.667;;;19.522;65.609;2.066
NH3;uur;�g/m�;19950104 07:00;19950104 08:00;21.317;0.939;2.825;;;17.266;27.048;1.482
NH3;uur;�g/m�;19950104 08:00;19950104 09:00;;0.868;2.804;;;14.112;16.078;1.139
NH3;uur;�g/m�;19950104 09:00;19950104 10:00;;0.851;3.226;;;14.535;16.591;1.104
NH3;uur;�g/m�;19950104 10:00;19950104 11:00;26.619;0.917;3.891;;;19.546;15.459;1.525
NH3;uur;�g/m�;19950104 11:00;19950104 12:00;20.037;1.078;3.987;;;14.272;;1.718
NH3;uur;�g/m�;19950104 12:00;19950104 13:00;18.358;0.922;3.391;;;13.958;;2.148
NH3;uur;�g/m�;19950104 13:00;19950104 14:00;14.526;1.075;2.559;;;10.709;;2.146
NH3;uur;�g/m�;19950104 14:00;19950104 15:00;15.139;1.047;2.099;;;9.551;;1.941
NH3;uur;�g/m�;19950104 15:00;19950104 16:00;20.202;0.851;;;;9.164;6.435;1.465
NH3;uur;�g/m�;19950104 16:00;19950104 17:00;14.391;0.678;;;;7.653;10.179;1.082
NH3;uur;�g/m�;19950104 17:00;19950104 18:00;13.533;0.622;;;;8.059;15.182;0.913
NH3;uur;�g/m�;19950104 18:00;19950104 19:00;17.57;0.664;;;;10.115;17.287;1.064
NH3;uur;�g/m�;19950104 19:00;19950104 20:00;13.893;0.746;;;;9.634;15.274;1.198
NH3;uur;�g/m�;19950104 20:00;19950104 21:00;16.238;0.761;;;;9.945;20.285;1.158
NH3;uur;�g/m�;19950104 21:00;19950104 22:00;20.097;0.994;;;;13.747;15.448;1.252
NH3;uur;�g/m�;19950104 22:00;19950104 23:00;16.565;1.334;;;;15.075;19.468;1.411
NH3;uur;�g/m�;19950104 23:00;19950105 00:00;14.32;1.347;;;;15.864;22.223;1.59
NH3;uur;�g/m�;19950105 00:00;19950105 01:00;12.87;1.085;;;;12.431;16.933;1.683
NH3;uur;�g/m�;19950105 01:00;19950105 02:00;12.153;0.877;;;;9.935;19.729;1.735
NH3;uur;�g/m�;19950105 02:00;19950105 03:00;11.807;0.791;;;;11.935;16.623;1.612
NH3;uur;�g/m�;19950105 03:00;19950105 04:00;13.66;0.786;;;;11.343;10.405;1.507
NH3;uur;�g/m�;19950105 04:00;19950105 05:00;15.989;0.768;;;;9.823;6.852;1.449
NH3;uur;�g/m�;19950105 05:00;19950105 06:00;14.568;0.659;;;;8.514;5.839;1.409
NH3;uur;�g/m�;19950105 06:00;19950105 07:00;12.611;0.585;;;;7.158;5.38;1.121
NH3;uur;�g/m�;19950105 07:00;19950105 08:00;9.404;0.527;;;;6.443;4.936;0.999
NH3;uur;�g/m�;19950105 08:00;19950105 09:00;8.227;0.49;;;;6.033;4.215;0.845
NH3;uur;�g/m�;19950105 09:00;19950105 10:00;7.691;0.487;;;;6.597;3.82;0.774
NH3;uur;�g/m�;19950105 10:00;19950105 11:00;7.491;0.511;;;;6.648;3.996;0.807
NH3;uur;�g/m�;19950105 11:00;19950105 12:00;8.745;;;;5.103;6.521;4.162;0.82
NH3;uur;�g/m�;19950105 12:00;19950105 13:00;8.298;;;;4.448;5.287;4.623;0.945
NH3;uur;�g/m�;19950105 13:00;19950105 14:00;8.364;;;;3.735;4.82;4.611;1.026
NH3;uur;�g/m�;19950105 14:00;19950105 15:00;7.076;0.779;;;3.719;4.527;4.751;1.024
NH3;uur;�g/m�;19950105 15:00;19950105 16:00;6.374;0.611;;;3.752;4.229;4.701;1.004
NH3;uur;�g/m�;19950105 16:00;19950105 17:00;6.182;0.565;;;4.608;4.629;3.958;0.967
NH3;uur;�g/m�;19950105 17:00;19950105 18:00;7.393;0.58;;;5.336;5.976;3.586;1.062
NH3;uur;�g/m�;19950105 18:00;19950105 19:00;7.984;0.578;;;4.869;6.242;3.217;0.993
NH3;uur;�g/m�;19950105 19:00;19950105 20:00;7.305;0.595;;;5.29;7.203;3.347;0.978
NH3;uur;�g/m�;19950105 20:00;19950105 21:00;6.422;0.586;;;5.282;7.657;3.206;0.959
NH3;uur;�g/m�;19950105 21:00;19950105 22:00;7.254;0.561;;;4.18;6.664;3.602;1.127
NH3;uur;�g/m�;19950105 22:00;19950105 23:00;7.088;0.55;;;3.726;5.914;3.405;1.239
NH3;uur;�g/m�;19950105 23:00;19950106 00:00;7.287;0.507;;;3.213;5.704;3.579;1.31
NH3;uur;�g/m�;19950106 00:00;19950106 01:00;6.637;0.448;;;3.261;8.051;3.617;1.327
NH3;uur;�g/m�;19950106 01:00;19950106 02:00;6.329;0.407;;;2.725;8.158;3.522;1.347
NH3;uur;�g/m�;19950106 02:00;19950106 03:00;7.872;0.391;;;2.765;8.39;3.663;1.358
NH3;uur;�g/m�;19950106 03:00;19950106 04:00;7.879;0.382;;;2.912;8.013;3.832;1.402
NH3;uur;�g/m�;19950106 04:00;19950106 05:00;8.459;0.362;;;2.307;8.601;3.627;1.43
NH3;uur;�g/m�;19950106 05:00;19950106 06:00;6.418;0.349;;;2.045;6.79;3.401;1.395
NH3;uur;�g/m�;19950106 06:00;19950106 07:00;5.327;0.342;;;1.977;6.061;3.478;1.375
NH3;uur;�g/m�;19950106 07:00;19950106 08:00;5.519;0.331;;;2.34;5.835;2.896;1.367
NH3;uur;�g/m�;19950106 08:00;19950106 09:00;5.937;0.334;;;2.608;5.84;3.22;1.364
NH3;uur;�g/m�;19950106 09:00;19950106 10:00;7.048;0.326;;;2.818;9.576;3.487;1.446
NH3;uur;�g/m�;19950106 10:00;19950106 11:00;8.195;0.33;;;3.134;12.986;3.514;1.51
NH3;uur;�g/m�;19950106 11:00;19950106 12:00;8.037;0.323;;;3.407;10.815;4.287;1.533
NH3;uur;�g/m�;19950106 12:00;19950106 13:00;7.617;0.326;;;3.135;9.511;4.456;1.64
NH3;uur;�g/m�;19950106 13:00;19950106 14:00;7.802;0.34;;;2.993;7.493;4.57;1.777
NH3;uur;�g/m�;19950106 14:00;19950106 15:00;7.773;0.377;;;2.864;7.385;4.299;1.665
NH3;uur;�g/m�;19950106 15:00;19950106 16:00;8.99;0.392;;;2.71;9.81;4.601;1.582
NH3;uur;�g/m�;19950106 16:00;19950106 17:00;9.823;0.357;;;2.604;10.199;5.198;1.491
NH3;uur;�g/m�;19950106 17:00;19950106 18:00;10.596;0.352;;;2.967;11.736;6.195;1.15
NH3;uur;�g/m�;19950106 18:00;19950106 19:00;13.97;0.381;;;3.528;16.755;5.338;0.933
NH3;uur;�g/m�;19950106 19:00;19950106 20:00;16.331;0.393;;;4.874;14.827;6.216;0.907
NH3;uur;�g/m�;19950106 20:00;19950106 21:00;21.933;0.458;;;6.313;14.712;6.345;0.923
NH3;uur;�g/m�;19950106 21:00;19950106 22:00;23.058;0.453;;;5.468;12.268;7.591;0.889
NH3;uur;�g/m�;19950106 22:00;19950106 23:00;31.151;0.452;;;4.408;12.214;12.939;0.882
NH3;uur;�g/m�;19950106 23:00;19950107 00:00;41.657;0.639;;;5.511;11.079;12.163;0.899
NH3;uur;�g/m�;19950107 00:00;19950107 01:00;34.505;0.544;;;8.009;11.813;9.454;1.21
NH3;uur;�g/m�;19950107 01:00;19950107 02:00;44.436;0.572;;;6.675;9.685;3.972;1.264
NH3;uur;�g/m�;19950107 02:00;19950107 03:00;49.279;0.622;;;4.97;11.961;3.86;1.056
NH3;uur;�g/m�;19950107 03:00;19950107 04:00;54.851;0.569;;;4.248;14.332;4.18;0.709
NH3;uur;�g/m�;19950107 04:00;19950107 05:00;29.095;0.534;;;4.236;12.296;5.781;0.693
NH3;uur;�g/m�;19950107 05:00;19950107 06:00;34.983;0.592;;;2.371;14.281;5.351;0.77
NH3;uur;�g/m�;19950107 06:00;19950107 07:00;49.157;0.525;;;2.323;13.915;16.255;0.724
NH3;uur;�g/m�;19950107 07:00;19950107 08:00;46.446;0.547;;;3.2;8.852;53.804;0.797
NH3;uur;�g/m�;19950107 08:00;19950107 09:00;42.661;0.68;;;8.251;9.979;66.7;0.825
NH3;uur;�g/m�;19950107 09:00;19950107 10:00;25.708;0.997;;;11.792;12.801;41.654;0.99
NH3;uur;�g/m�;19950107 10:00;19950107 11:00;27.014;1.038;;;12.84;18.671;77.885;0.8
NH3;uur;�g/m�;19950107 11:00;19950107 12:00;23.206;1.094;;;13.789;18.433;114.091;0.48
NH3;uur;�g/m�;19950107 12:00;19950107 13:00;12.53;1.122;;;14.585;17.887;86.194;0.375
NH3;uur;�g/m�;19950107 13:00;19950107 14:00;9.954;1.597;;;7.635;12.973;68.441;0.322
NH3;uur;�g/m�;19950107 14:00;19950107 15:00;11.266;1.819;;;6.106;11.044;34.981;0.25
NH3;uur;�g/m�;19950107 15:00;19950107 16:00;11.922;1.338;;;6.135;10.857;33.56;0.227
NH3;uur;�g/m�;19950107 16:00;19950107 17:00;18.317;0.964;;;20.008;12.281;42.764;0.215
NH3;uur;�g/m�;19950107 17:00;19950107 18:00;29.956;0.72;;;17.102;8.695;50.566;0.203
NH3;uur;�g/m�;19950107 18:00;19950107 19:00;20.595;0.637;;;14.73;6.813;70.959;0.196
NH3;uur;�g/m�;19950107 19:00;19950107 20:00;31.417;0.72;;;22.28;6.859;36.152;0.197
NH3;uur;�g/m�;19950107 20:00;19950107 21:00;28.999;1.134;;;13.534;7.661;20.916;0.194
NH3;uur;�g/m�;19950107 21:00;19950107 22:00;65.851;1.131;;;10.945;8.31;14.281;0.193
NH3;uur;�g/m�;19950107 22:00;19950107 23:00;83.07;1.163;;;8.985;11.928;14.116;0.228
NH3;uur;�g/m�;19950107 23:00;19950108 00:00;69.154;0.635;;;5.607;9.72;12.908;0.364
NH3;uur;�g/m�;19950108 00:00;19950108 01:00;68.975;0.463;;;2.844;15.311;13.633;0.5
NH3;uur;�g/m�;19950108 01:00;19950108 02:00;56.257;0.496;;;3.419;17.575;14.355;0.564
NH3;uur;�g/m�;19950108 02:00;19950108 03:00;39.692;0.438;;;2.638;22.145;10.712;0.718
NH3;uur;�g/m�;19950108 03:00;19950108 04:00;24.619;0.412;;;3.408;17.798;7.054;0.901
NH3;uur;�g/m�;19950108 04:00;19950108 05:00;14.769;0.391;;;5.226;14.413;8.201;1.715
NH3;uur;�g/m�;19950108 05:00;19950108 06:00;12.674;0.389;;;5.109;12.19;11.321;2.014
NH3;uur;�g/m�;19950108 06:00;19950108 07:00;11.442;0.383;;;4.982;13.014;11.007;2.184
NH3;uur;�g/m�;19950108 07:00;19950108 08:00;13.129;0.381;;;4.084;13.405;9.463;2.332
NH3;uur;�g/m�;19950108 08:00;19950108 09:00;14.829;0.378;;;2.807;12.824;9.384;2.276
NH3;uur;�g/m�;19950108 09:00;19950108 10:00;13.181;0.386;;;2.394;11.981;9.176;2.562
NH3;uur;�g/m�;19950108 10:00;19950108 11:00;13.801;0.387;;;2.079;12.119;8.454;2.525
NH3;uur;�g/m�;19950108 11:00;19950108 12:00;13.716;0.38;;;1.895;11.845;7.273;2.295
NH3;uur;�g/m�;19950108 12:00;19950108 13:00;11.961;0.374;;;1.882;11.003;5.581;1.959
NH3;uur;�g/m�;19950108 13:00;19950108 14:00;9.878;0.39;;;1.83;10.718;4.468;1.911
NH3;uur;�g/m�;19950108 14:00;19950108 15:00;8.333;0.407;;;1.668;10.544;3.09;1.355
NH3;uur;�g/m�;19950108 15:00;19950108 16:00;6.309;0.432;;;1.608;8.213;2.231;0.937
NH3;uur;�g/m�;19950108 16:00;19950108 17:00;4.871;0.438;;;2.463;7.41;1.662;0.738
NH3;uur;�g/m�;19950108 17:00;19950108 18:00;4.729;0.439;;;2.283;7.906;1.476;0.645
NH3;uur;�g/m�;19950108 18:00;19950108 19:00;4.824;0.673;;;2.183;6.956;1.614;0.612
NH3;uur;�g/m�;19950108 19:00;19950108 20:00;5.131;0.979;;;1.993;6.127;1.559;0.603
NH3;uur;�g/m�;19950108 20:00;19950108 21:00;5.091;0.598;;;2.121;5.233;1.421;0.603
NH3;uur;�g/m�;19950108 21:00;19950108 22:00;5.944;0.572;;;4.107;4.431;1.603;0.582
NH3;uur;�g/m�;19950108 22:00;19950108 23:00;5.78;0.634;;;3.394;4.109;4.621;0.552
NH3;uur;�g/m�;19950108 23:00;19950109 00:00;8.086;0.676;;;2.996;4.175;13.319;0.478
NH3;uur;�g/m�;19950109 00:00;19950109 01:00;11.336;0.682;;;2.703;4.399;16.892;0.406
NH3;uur;�g/m�;19950109 01:00;19950109 02:00;22.445;0.61;;;14.582;4.619;21.449;0.328
NH3;uur;�g/m�;19950109 02:00;19950109 03:00;17.909;0.59;;;36.71;4.193;18.736;0.312
NH3;uur;�g/m�;19950109 03:00;19950109 04:00;28.477;0.506;;;26.245;3.899;15.655;0.329
NH3;uur;�g/m�;19950109 04:00;19950109 05:00;35.572;0.48;;;20.565;3.953;9.804;0.448
NH3;uur;�g/m�;19950109 05:00;19950109 06:00;35.739;0.456;;;10.702;7.005;8.647;0.716
NH3;uur;�g/m�;19950109 06:00;19950109 07:00;21.113;0.462;;;8.629;7.609;8.289;0.961
NH3;uur;�g/m�;19950109 07:00;19950109 08:00;16.936;0.486;;;10.363;6.92;7.749;1.008
NH3;uur;�g/m�;19950109 08:00;19950109 09:00;14.289;0.525;;;5.009;8.983;6.252;0.935
NH3;uur;�g/m�;19950109 09:00;19950109 10:00;13.502;0.611;;;4.597;10.037;5.009;0.919
NH3;uur;�g/m�;19950109 10:00;19950109 11:00;13.908;1.163;;;6.517;10.153;4.527;1.374
NH3;uur;�g/m�;19950109 11:00;19950109 12:00;13.157;1.425;;;5.552;11.553;5.669;1.834
NH3;uur;�g/m�;19950109 12:00;19950109 13:00;11.585;1.989;;;4.754;11.978;6.67;2.684
NH3;uur;�g/m�;19950109 13:00;19950109 14:00;10.671;3.27;;;5.341;11.122;6.049;2.855
NH3;uur;�g/m�;19950109 14:00;19950109 15:00;9.909;3.545;0.513;0.916;4.576;10.291;5.632;2.62
NH3;uur;�g/m�;19950109 15:00;19950109 16:00;8.42;3.759;0.453;1.416;3.167;9.815;4.977;2.312
NH3;uur;�g/m�;19950109 16:00;19950109 17:00;8.133;4.587;0.419;1.321;2.77;8.265;3.686;2.062
NH3;uur;�g/m�;19950109 17:00;19950109 18:00;7.123;5.286;0.384;;2.54;7.325;2.589;1.981
NH3;uur;�g/m�;19950109 18:00;19950109 19:00;7.106;4.489;0.352;;2.593;6.468;2.284;1.861
NH3;uur;�g/m�;19950109 19:00;19950109 20:00;7.921;3.511;0.34;0.923;2.273;5.664;2.221;1.671
NH3;uur;�g/m�;19950109 20:00;19950109 21:00;6.126;2.78;0.359;1.052;2.711;5.487;1.778;1.261
NH3;uur;�g/m�;19950109 21:00;19950109 22:00;5.127;2.159;0.385;1.08;5.917;4.561;1.617;1.24
NH3;uur;�g/m�;19950109 22:00;19950109 23:00;6.883;1.658;0.391;0.928;6.605;4.131;2.212;1.436
NH3;uur;�g/m�;19950109 23:00;19950110 00:00;7.703;1.33;0.378;0.9;5.587;4.258;2.411;1.237
NH3;uur;�g/m�;19950110 00:00;19950110 01:00;8.002;1.182;0.359;0.935;4.991;4.243;2.564;0.93
NH3;uur;�g/m�;19950110 01:00;19950110 02:00;7.476;1.111;0.385;1.07;2.88;4.364;4.43;1.089
NH3;uur;�g/m�;19950110 02:00;19950110 03:00;4.934;0.835;0.462;1.095;2.65;4.312;5.657;1.198
NH3;uur;�g/m�;19950110 03:00;19950110 04:00;5.813;0.882;0.536;1.064;2.258;4.127;5.425;1.355
NH3;uur;�g/m�;19950110 04:00;19950110 05:00;5.692;0.933;0.571;1.021;2.09;3.697;5.037;1.132
NH3;uur;�g/m�;19950110 05:00;19950110 06:00;5.442;0.871;0.579;1.064;1.948;3.632;4.819;0.682
NH3;uur;�g/m�;19950110 06:00;19950110 07:00;5.435;0.848;0.565;1.128;1.921;3.422;5.415;0.911
NH3;uur;�g/m�;19950110 07:00;19950110 08:00;5.62;0.842;0.539;1.06;1.906;3.195;5.121;0.81
NH3;uur;�g/m�;19950110 08:00;19950110 09:00;5.923;0.769;0.531;;1.912;3.153;5.836;0.713
NH3;uur;�g/m�;19950110 09:00;19950110 10:00;7.316;0.745;0.534;;2.005;3.018;5.663;0.898
NH3;uur;�g/m�;19950110 10:00;19950110 11:00;8.199;0.779;0.415;0.883;1.83;2.667;5.336;
NH3;uur;�g/m�;19950110 11:00;19950110 12:00;8.162;0.842;0.393;0.656;1.582;;5.327;
NH3;uur;�g/m�;19950110 12:00;19950110 13:00;4.352;0.837;0.466;0.566;1.823;;4.596;
NH3;uur;�g/m�;19950110 13:00;19950110 14:00;6.055;0.81;0.469;0.596;1.804;;3.889;0.57
NH3;uur;�g/m�;19950110 14:00;19950110 15:00;6.299;0.814;0.466;0.84;1.936;2.398;4.751;0.614
NH3;uur;�g/m�;19950110 15:00;19950110 16:00;6.501;0.771;0.461;0.658;1.968;2.545;5.916;0.671
NH3;uur;�g/m�;19950110 16:00;19950110 17:00;6.934;0.751;0.435;0.581;1.902;2.568;5.476;0.627
NH3;uur;�g/m�;19950110 17:00;19950110 18:00;7.163;0.679;0.372;0.585;1.795;3.039;6.348;0.694
NH3;uur;�g/m�;19950110 18:00;19950110 19:00;6.104;0.596;0.321;0.574;4.853;2.792;4.486;1.009
NH3;uur;�g/m�;19950110 19:00;19950110 20:00;7.964;0.641;0.288;0.527;4.443;2.31;3.387;1.275
NH3;uur;�g/m�;19950110 20:00;19950110 21:00;6.426;0.777;0.269;;3.245;2.724;2.778;1.024
NH3;uur;�g/m�;19950110 21:00;19950110 22:00;5.052;0.742;0.259;;3.31;2.934;3.26;1.204
NH3;uur;�g/m�;19950110 22:00;19950110 23:00;5.244;0.656;0.24;0.43;4.379;2.917;2.766;1.152
NH3;uur;�g/m�;19950110 23:00;19950111 00:00;47.687;0.622;0.219;0.45;4.729;2.557;8.708;0.792
NH3;uur;�g/m�;19950111 00:00;19950111 01:00;23.993;0.502;0.216;0.491;3.338;2.508;14.687;0.627
NH3;uur;�g/m�;19950111 01:00;19950111 02:00;15.879;0.444;0.218;;2.367;3.416;11.417;0.68
NH3;uur;�g/m�;19950111 02:00;19950111 03:00;8.048;0.43;0.237;;2.815;4.193;11.47;0.643
NH3;uur;�g/m�;19950111 03:00;19950111 04:00;7.605;0.438;0.257;;2.344;4.345;14.251;0.58
NH3;uur;�g/m�;19950111 04:00;19950111 05:00;8.837;0.452;0.309;;2.076;4.462;12.31;0.539
NH3;uur;�g/m�;19950111 05:00;19950111 06:00;9.294;0.451;0.317;0.465;1.995;4.596;13.909;0.616
NH3;uur;�g/m�;19950111 06:00;19950111 07:00;11.306;0.474;0.291;0.474;1.734;4.355;11.857;0.661
NH3;uur;�g/m�;19950111 07:00;19950111 08:00;11.804;0.477;0.279;0.49;1.48;3.785;13.982;0.746
NH3;uur;�g/m�;19950111 08:00;19950111 09:00;11.356;0.484;0.284;0.417;1.569;3.687;12.123;0.722
NH3;uur;�g/m�;19950111 09:00;19950111 10:00;9.987;0.511;0.32;0.458;1.872;3.93;10.641;0.8
NH3;uur;�g/m�;19950111 10:00;19950111 11:00;9.047;0.568;0.285;0.52;1.865;4.026;8.8;1.027
NH3;uur;�g/m�;19950111 11:00;19950111 12:00;9.353;0.679;0.345;0.536;1.845;4.21;;1.163
NH3;uur;�g/m�;19950111 12:00;19950111 13:00;;0.727;0.409;0.537;1.948;4.529;;1.299
NH3;uur;�g/m�;19950111 13:00;19950111 14:00;;0.675;0.427;;1.808;4.939;;1.258
NH3;uur;�g/m�;19950111 14:00;19950111 15:00;;0.698;0.475;;1.673;4.089;9.566;1.215
NH3;uur;�g/m�;19950111 15:00;19950111 16:00;6.409;0.532;0.421;;1.68;3.745;9.191;0.976
NH3;uur;�g/m�;19950111 16:00;19950111 17:00;7.445;0.522;0.367;0.494;1.564;3.91;10.292;0.836
NH3;uur;�g/m�;19950111 17:00;19950111 18:00;9.716;0.495;0.343;0.517;1.808;2.742;8.906;0.718
NH3;uur;�g/m�;19950111 18:00;19950111 19:00;9.101;0.468;0.334;0.502;1.669;3.553;9.025;0.644
NH3;uur;�g/m�;19950111 19:00;19950111 20:00;7.767;0.46;0.324;0.419;1.619;3.642;13.241;0.399
NH3;uur;�g/m�;19950111 20:00;19950111 21:00;9.085;0.464;0.32;0.492;1.528;2.952;10.713;0.422
NH3;uur;�g/m�;19950111 21:00;19950111 22:00;12.338;0.49;0.315;0.492;1.502;2.761;8.773;0.355
NH3;uur;�g/m�;19950111 22:00;19950111 23:00;11.518;0.458;0.286;0.371;1.557;2.742;9.449;0.389
NH3;uur;�g/m�;19950111 23:00;19950112 00:00;9.938;0.447;0.27;0.385;1.452;3.226;8.973;0.376
NH3;uur;�g/m�;19950112 00:00;19950112 01:00;9.385;0.462;0.278;;1.453;2.764;9.155;0.432
NH3;uur;�g/m�;19950112 01:00;19950112 02:00;9.827;0.475;0.272;;1.499;2.462;8.774;0.449